| time (UTC) | temp F | wind direction | speed MPH | gust MPH | rain 1hr in | rain 24hr in | rain mn in | humidity % | barometer mb |
| 20260905204854 | 68 | 143 | 4.0 | 11.0 | 0.00 | 0.00 | 0.00 | 77 | 1009.7 |
| 20260905204359 | 69 | 159 | 4.0 | 11.0 | 0.00 | 0.00 | 0.00 | 77 | 1009.8 |
| 20260905203843 | 69 | 155 | 4.0 | 11.0 | 0.00 | 0.00 | 0.00 | 77 | 1009.7 |
| 20260905203346 | 69 | 107 | 4.0 | 11.0 | 0.00 | 0.00 | 0.00 | 77 | 1009.7 |
| 20260905202851 | 69 | 153 | 4.0 | 12.0 | 0.00 | 0.00 | 0.00 | 76 | 1009.6 |
| 20260905202357 | 69 | 153 | 5.0 | 12.0 | 0.00 | 0.00 | 0.00 | 75 | 1009.6 |
| 20260905201900 | 70 | 151 | 3.0 | 11.0 | 0.00 | 0.00 | 0.00 | 75 | 1009.5 |
| 20260905201346 | 70 | 88 | 4.0 | 11.0 | 0.00 | 0.00 | 0.00 | 75 | 1009.5 |
| 20260905200852 | 70 | 113 | 3.0 | 9.0 | 0.00 | 0.00 | 0.00 | 74 | 1009.4 |
| 20260905200351 | 71 | 165 | 6.0 | 9.0 | 0.00 | 0.00 | 0.00 | 73 | 1009.3 |
| 20260905195920 | 71 | 76 | 3.0 | 9.0 | 0.00 | 0.00 | 0.00 | 73 | 1009.1 |
| 20260905195344 | 71 | 127 | 2.0 | 9.0 | 0.00 | 0.00 | 0.00 | 73 | 1009.0 |
| 20260905194845 | 71 | 107 | 2.0 | 6.0 | 0.00 | 0.00 | 0.00 | 74 | 1009.0 |
| 20260905194352 | 71 | 113 | 2.0 | 10.0 | 0.00 | 0.00 | 0.00 | 73 | 1009.0 |
| 20260905193916 | 71 | 93 | 4.0 | 8.0 | 0.00 | 0.00 | 0.00 | 73 | 1009.1 |
| 20260905193357 | 71 | 139 | 3.0 | 8.0 | 0.00 | 0.00 | 0.00 | 73 | 1009.2 |
| 20260905192858 | 71 | 115 | 4.0 | 9.0 | 0.00 | 0.00 | 0.00 | 72 | 1009.2 |
| 20260905192341 | 71 | 90 | 5.0 | 9.0 | 0.00 | 0.00 | 0.00 | 72 | 1009.2 |
| 20260905191845 | 71 | 224 | 0.0 | 8.0 | 0.00 | 0.00 | 0.00 | 72 | 1009.2 |
| 20260905191349 | 71 | 159 | 5.0 | 8.0 | 0.00 | 0.00 | 0.00 | 72 | 1009.2 |
| 20260905190854 | 71 | 144 | 3.0 | 7.0 | 0.00 | 0.00 | 0.00 | 72 | 1009.2 |
| 20260905190352 | 71 | 135 | 2.0 | 10.0 | 0.00 | 0.00 | 0.00 | 73 | 1009.2 |
| 20260905185902 | 71 | 149 | 5.0 | 10.0 | 0.00 | 0.00 | 0.00 | 73 | 1009.1 |
| 20260905185342 | 71 | 198 | 3.0 | 8.0 | 0.00 | 0.00 | 0.00 | 74 | 1009.2 |
| 20260905184845 | 71 | 171 | 4.0 | 9.0 | 0.00 | 0.00 | 0.00 | 75 | 1009.3 |
| 20260905184350 | 70 | 248 | 4.0 | 10.0 | 0.00 | 0.00 | 0.00 | 77 | 1009.4 |
| 20260905183857 | 69 | 134 | 5.0 | 10.0 | 0.00 | 0.00 | 0.00 | 78 | 1009.4 |
| 20260905183341 | 69 | 69 | 4.0 | 10.0 | 0.00 | 0.00 | 0.00 | 79 | 1009.4 |
| 20260905182845 | 69 | 138 | 5.0 | 10.0 | 0.00 | 0.00 | 0.00 | 78 | 1009.3 |
| 20260905182351 | 69 | 157 | 5.0 | 10.0 | 0.00 | 0.00 | 0.00 | 78 | 1009.4 |
| 20260905181848 | 69 | 148 | 6.0 | 10.0 | 0.00 | 0.00 | 0.00 | 77 | 1009.5 |
| 20260905181352 | 70 | 162 | 6.0 | 8.0 | 0.00 | 0.00 | 0.00 | 75 | 1009.4 |
| 20260905180857 | 71 | 129 | 4.0 | 7.0 | 0.00 | 0.00 | 0.00 | 74 | 1009.3 |
| 20260905180356 | 71 | 86 | 3.0 | 8.0 | 0.00 | 0.00 | 0.00 | 72 | 1009.2 |
| 20260905175925 | 71 | 116 | 3.0 | 8.0 | 0.00 | 0.00 | 0.00 | 71 | 1009.2 |
| 20260905175406 | 72 | 141 | 5.0 | 8.0 | 0.00 | 0.00 | 0.00 | 71 | 1009.2 |
| 20260905174847 | 72 | 97 | 1.0 | 7.0 | 0.00 | 0.00 | 0.00 | 71 | 1009.1 |
| 20260905174351 | 71 | 146 | 1.0 | 4.0 | 0.00 | 0.00 | 0.00 | 71 | 1009.1 |
| 20260905173915 | 72 | 119 | 2.0 | 7.0 | 0.00 | 0.00 | 0.00 | 70 | 1009.0 |
| 20260905173356 | 72 | 84 | 4.0 | 7.0 | 0.00 | 0.00 | 0.00 | 70 | 1009.0 |
| 20260905172901 | 72 | 138 | 3.0 | 6.0 | 0.00 | 0.00 | 0.00 | 70 | 1009.0 |
| 20260905172345 | 72 | 101 | 3.0 | 10.0 | 0.00 | 0.00 | 0.00 | 69 | 1008.9 |
| 20260905171908 | 72 | 119 | 4.0 | 7.0 | 0.00 | 0.00 | 0.00 | 69 | 1008.9 |
| 20260905171411 | 73 | 123 | 3.0 | 7.0 | 0.00 | 0.00 | 0.00 | 69 | 1008.9 |
| 20260905170854 | 72 | 53 | 3.0 | 7.0 | 0.00 | 0.00 | 0.00 | 69 | 1008.8 |
| 20260905170346 | 72 | 126 | 1.0 | 5.0 | 0.00 | 0.00 | 0.00 | 69 | 1008.7 |
| 20260905165856 | 72 | 97 | 1.0 | 7.0 | 0.00 | 0.00 | 0.00 | 69 | 1008.8 |
| 20260905165402 | 72 | 73 | 2.0 | 9.0 | 0.00 | 0.00 | 0.00 | 69 | 1008.7 |
| 20260905164903 | 72 | 106 | 4.0 | 8.0 | 0.00 | 0.00 | 0.00 | 69 | 1008.7 |
| 20260905164405 | 71 | 113 | 4.0 | 7.0 | 0.00 | 0.00 | 0.00 | 70 | 1008.8 |
| 20260905163850 | 71 | 273 | 2.0 | 6.0 | 0.00 | 0.00 | 0.00 | 70 | 1008.8 |
| 20260905163414 | 72 | 149 | 4.0 | 7.0 | 0.00 | 0.00 | 0.00 | 69 | 1008.9 |
| 20260905162856 | 72 | 128 | 3.0 | 7.0 | 0.00 | 0.00 | 0.00 | 69 | 1008.8 |
| 20260905162400 | 72 | 165 | 1.0 | 5.0 | 0.00 | 0.00 | 0.00 | 70 | 1008.7 |
| 20260905161857 | 72 | 128 | 3.0 | 5.0 | 0.00 | 0.00 | 0.00 | 70 | 1008.8 |
| 20260905161359 | 72 | 92 | 2.0 | 6.0 | 0.00 | 0.00 | 0.00 | 71 | 1008.8 |
| 20260905160844 | 71 | 92 | 3.0 | 8.0 | 0.00 | 0.00 | 0.00 | 72 | 1008.8 |
| 20260905160349 | 71 | 98 | 3.0 | 8.0 | 0.00 | 0.00 | 0.00 | 72 | 1008.8 |
| 20260905155848 | 71 | 109 | 3.0 | 8.0 | 0.00 | 0.00 | 0.00 | 72 | 1008.7 |
| 20260905155413 | 71 | 83 | 2.0 | 6.0 | 0.00 | 0.00 | 0.00 | 73 | 1008.7 |
| 20260905154845 | 71 | 145 | 3.0 | 11.0 | 0.00 | 0.00 | 0.00 | 73 | 1008.7 |
| 20260905154349 | 71 | 97 | 4.0 | 11.0 | 0.00 | 0.00 | 0.00 | 72 | 1008.7 |
| 20260905153914 | 72 | 128 | 3.0 | 8.0 | 0.00 | 0.00 | 0.00 | 72 | 1008.8 |
| 20260905153416 | 72 | 128 | 3.0 | 6.0 | 0.00 | 0.00 | 0.00 | 73 | 1008.7 |
| 20260905152859 | 71 | 167 | 2.0 | 6.0 | 0.00 | 0.00 | 0.00 | 73 | 1008.7 |
| 20260905152344 | 71 | 125 | 4.0 | 10.0 | 0.00 | 0.00 | 0.00 | 74 | 1008.7 |
| 20260905151846 | 71 | 105 | 4.0 | 10.0 | 0.00 | 0.00 | 0.00 | 73 | 1008.8 |
| 20260905151408 | 72 | 114 | 3.0 | 9.0 | 0.00 | 0.00 | 0.00 | 73 | 1008.9 |
| 20260905150911 | 71 | 150 | 3.0 | 9.0 | 0.00 | 0.00 | 0.00 | 73 | 1008.7 |
| 20260905150352 | 71 | 128 | 3.0 | 11.0 | 0.00 | 0.00 | 0.00 | 72 | 1008.6 |
| 20260905145902 | 72 | 134 | 2.0 | 8.0 | 0.00 | 0.00 | 0.00 | 73 | 1008.6 |
| 20260905145409 | 71 | 111 | 4.0 | 7.0 | 0.00 | 0.00 | 0.00 | 73 | 1008.6 |
| 20260905144852 | 71 | 90 | 3.0 | 8.0 | 0.00 | 0.00 | 0.00 | 73 | 1008.7 |
| 20260905144400 | 71 | 134 | 3.0 | 8.0 | 0.00 | 0.00 | 0.00 | 72 | 1008.6 |
| 20260905143846 | 72 | 179 | 5.0 | 8.0 | 0.00 | 0.00 | 0.00 | 71 | 1008.7 |
| 20260905143348 | 72 | 91 | 3.0 | 7.0 | 0.00 | 0.00 | 0.00 | 71 | 1008.7 |
| 20260905142912 | 72 | 321 | 1.0 | 6.0 | 0.00 | 0.00 | 0.00 | 72 | 1008.7 |
| 20260905142357 | 72 | 355 | 1.0 | 5.0 | 0.00 | 0.00 | 0.00 | 74 | 1008.6 |
| 20260905141859 | 71 | 103 | 2.0 | 6.0 | 0.00 | 0.00 | 0.00 | 76 | 1008.6 |
| 20260905141402 | 70 | 100 | 2.0 | 7.0 | 0.00 | 0.00 | 0.00 | 76 | 1008.6 |
| 20260905140909 | 70 | 121 | 3.0 | 7.0 | 0.00 | 0.00 | 0.00 | 75 | 1008.8 |
| 20260905140342 | 71 | 138 | 1.0 | 4.0 | 0.00 | 0.00 | 0.00 | 75 | 1008.7 |
| 20260905135850 | 71 | 133 | 2.0 | 8.0 | 0.00 | 0.00 | 0.00 | 75 | 1008.8 |
| 20260905135356 | 71 | 117 | 2.0 | 8.0 | 0.00 | 0.00 | 0.00 | 75 | 1008.8 |
| 20260905134858 | 71 | 132 | 1.0 | 9.0 | 0.00 | 0.00 | 0.00 | 75 | 1008.8 |
| 20260905134344 | 71 | 97 | 2.0 | 6.0 | 0.00 | 0.00 | 0.00 | 75 | 1008.8 |
| 20260905133909 | 70 | 117 | 2.0 | 6.0 | 0.00 | 0.00 | 0.00 | 75 | 1008.8 |
| 20260905133411 | 71 | 127 | 4.0 | 8.0 | 0.00 | 0.00 | 0.00 | 75 | 1008.6 |
| 20260905132913 | 71 | 148 | 3.0 | 7.0 | 0.00 | 0.00 | 0.00 | 75 | 1008.6 |
| 20260905132356 | 71 | 115 | 2.0 | 6.0 | 0.00 | 0.00 | 0.00 | 75 | 1008.6 |
| 20260905131856 | 71 | 111 | 3.0 | 6.0 | 0.00 | 0.00 | 0.00 | 74 | 1008.5 |
| 20260905131402 | 71 | 136 | 3.0 | 5.0 | 0.00 | 0.00 | 0.00 | 74 | 1008.4 |
| 20260905130849 | 71 | 302 | 1.0 | 4.0 | 0.00 | 0.00 | 0.00 | 75 | 1008.5 |
| 20260905130342 | 71 | 348 | 2.0 | 4.0 | 0.00 | 0.00 | 0.00 | 75 | 1008.5 |
| 20260905125851 | 71 | 138 | 1.0 | 3.0 | 0.00 | 0.00 | 0.00 | 75 | 1008.4 |
| 20260905125357 | 71 | 133 | 1.0 | 4.0 | 0.00 | 0.00 | 0.00 | 76 | 1008.3 |
| 20260905124900 | 70 | 132 | 1.0 | 4.0 | 0.00 | 0.00 | 0.00 | 76 | 1008.3 |
| 20260905124346 | 70 | 112 | 1.0 | 3.0 | 0.00 | 0.00 | 0.00 | 76 | 1008.4 |
| 20260905123853 | 70 | 333 | 0.0 | 6.0 | 0.00 | 0.00 | 0.00 | 76 | 1008.3 |
| 20260905123356 | 70 | 329 | 1.0 | 6.0 | 0.00 | 0.00 | 0.00 | 77 | 1008.2 |
| 20260905122842 | 69 | 337 | 1.0 | 7.0 | 0.00 | 0.00 | 0.00 | 78 | 1008.2 |
| 20260905122349 | 69 | 316 | 1.0 | 7.0 | 0.00 | 0.00 | 0.00 | 78 | 1008.1 |
| 20260905121852 | 69 | 317 | 0.0 | 4.0 | 0.00 | 0.00 | 0.00 | 78 | 1008.0 |
| 20260905121358 | 68 | 325 | 0.0 | 4.0 | 0.00 | 0.00 | 0.00 | 80 | 1008.0 |
| 20260905120903 | 68 | 325 | 0.0 | 3.0 | 0.00 | 0.00 | 0.00 | 79 | 1008.0 |
| 20260905120400 | 68 | 320 | 0.0 | 5.0 | 0.00 | 0.00 | 0.00 | 80 | 1008.0 |
| 20260905115849 | 68 | 320 | 2.0 | 7.0 | 0.00 | 0.00 | 0.00 | 79 | 1008.0 |
| 20260905115356 | 68 | 325 | 0.0 | 4.0 | 0.00 | 0.00 | 0.00 | 79 | 1008.0 |
| 20260905114900 | 68 | 321 | 0.0 | 2.0 | 0.00 | 0.00 | 0.00 | 80 | 1007.9 |
| 20260905114407 | 67 | 321 | 0.0 | 1.0 | 0.00 | 0.00 | 0.00 | 80 | 1007.9 |
| 20260905113853 | 67 | 320 | 0.0 | 2.0 | 0.00 | 0.00 | 0.00 | 81 | 1007.7 |
| 20260905113417 | 67 | 320 | 0.0 | 3.0 | 0.00 | 0.00 | 0.00 | 81 | 1007.8 |
| 20260905112923 | 67 | 320 | 0.0 | 3.0 | 0.00 | 0.00 | 0.00 | 82 | 1007.6 |
| 20260905112349 | 67 | 324 | 0.0 | 3.0 | 0.00 | 0.00 | 0.00 | 83 | 1007.6 |
| 20260905111855 | 66 | 324 | 0.0 | 3.0 | 0.00 | 0.00 | 0.00 | 83 | 1007.6 |
| 20260905111402 | 66 | 323 | 0.0 | 3.0 | 0.00 | 0.00 | 0.00 | 84 | 1007.6 |
| 20260905110848 | 66 | 324 | 0.0 | 3.0 | 0.00 | 0.00 | 0.00 | 85 | 1007.5 |
| 20260905110348 | 65 | 315 | 0.0 | 5.0 | 0.00 | 0.00 | 0.00 | 86 | 1007.5 |
| 20260905105858 | 65 | 315 | 1.0 | 5.0 | 0.00 | 0.00 | 0.00 | 86 | 1007.4 |
| 20260905105344 | 64 | 317 | 0.0 | 3.0 | 0.00 | 0.00 | 0.00 | 87 | 1007.4 |
| 20260905104845 | 64 | 308 | 0.0 | 2.0 | 0.00 | 0.00 | 0.00 | 87 | 1007.3 |
| 20260905104349 | 63 | 308 | 0.0 | 2.0 | 0.00 | 0.00 | 0.00 | 87 | 1007.2 |
| 20260905103853 | 63 | 308 | 0.0 | 2.0 | 0.00 | 0.00 | 0.00 | 87 | 1007.3 |
| 20260905103352 | 63 | 308 | 0.0 | 0.0 | 0.00 | 0.00 | 0.00 | 86 | 1007.3 |
| 20260905102858 | 63 | 308 | 0.0 | 0.0 | 0.00 | 0.00 | 0.00 | 86 | 1007.3 |
| 20260905102424 | 63 | 308 | 0.0 | 0.0 | 0.00 | 0.00 | 0.00 | 86 | 1007.3 |
| 20260905101843 | 63 | 308 | 0.0 | 0.0 | 0.00 | 0.00 | 0.00 | 86 | 1007.3 |
| 20260905101349 | 63 | 308 | 0.0 | 1.0 | 0.00 | 0.00 | 0.00 | 86 | 1007.3 |
| 20260905100917 | 63 | 308 | 0.0 | 1.0 | 0.00 | 0.00 | 0.00 | 86 | 1007.3 |
| 20260905100355 | 63 | 308 | 0.0 | 0.0 | 0.00 | 0.00 | 0.00 | 85 | 1007.2 |
| 20260905095845 | 63 | 308 | 0.0 | 2.0 | 0.00 | 0.00 | 0.00 | 85 | 1007.3 |
| 20260905095413 | 64 | 308 | 0.0 | 3.0 | 0.00 | 0.00 | 0.00 | 85 | 1007.3 |
| 20260905094855 | 64 | 308 | 0.0 | 2.0 | 0.00 | 0.00 | 0.00 | 85 | 1007.2 |
| 20260905094402 | 64 | 307 | 0.0 | 1.0 | 0.00 | 0.00 | 0.00 | 85 | 1007.2 |
| 20260905093909 | 64 | 307 | 0.0 | 1.0 | 0.00 | 0.00 | 0.00 | 85 | 1007.1 |
| 20260905093351 | 64 | 307 | 0.0 | 2.0 | 0.00 | 0.00 | 0.00 | 84 | 1007.1 |
| 20260905092858 | 64 | 307 | 0.0 | 4.0 | 0.00 | 0.00 | 0.00 | 84 | 1007.1 |
| 20260905092344 | 64 | 307 | 2.0 | 4.0 | 0.00 | 0.00 | 0.00 | 84 | 1007.2 |
| 20260905091908 | 64 | 306 | 0.0 | 3.0 | 0.00 | 0.00 | 0.00 | 84 | 1007.1 |
| 20260905091352 | 64 | 306 | 0.0 | 3.0 | 0.00 | 0.00 | 0.00 | 84 | 1007.0 |
| 20260905090857 | 64 | 306 | 0.0 | 3.0 | 0.00 | 0.00 | 0.00 | 84 | 1007.0 |
| 20260905085900 | 64 | 308 | 0.0 | 3.0 | 0.00 | 0.00 | 0.00 | 83 | 1007.0 |
| 20260905085344 | 64 | 308 | 0.0 | 3.0 | 0.00 | 0.00 | 0.00 | 83 | 1007.0 |
| 20260905084359 | 64 | 306 | 0.0 | 4.0 | 0.00 | 0.00 | 0.00 | 83 | 1006.9 |
| 20260905083848 | 64 | 304 | 1.0 | 3.0 | 0.00 | 0.00 | 0.00 | 83 | 1006.9 |
| 20260905083412 | 64 | 304 | 1.0 | 3.0 | 0.00 | 0.00 | 0.00 | 83 | 1006.9 |
| 20260905082856 | 64 | 304 | 0.0 | 2.0 | 0.00 | 0.00 | 0.00 | 83 | 1006.9 |
| 20260905082344 | 64 | 302 | 0.0 | 2.0 | 0.00 | 0.00 | 0.00 | 83 | 1006.9 |
| 20260905081849 | 65 | 302 | 0.0 | 4.0 | 0.00 | 0.00 | 0.00 | 83 | 1006.9 |
| 20260905081355 | 65 | 302 | 1.0 | 4.0 | 0.00 | 0.00 | 0.00 | 83 | 1006.8 |
| 20260905080918 | 65 | 304 | 0.0 | 3.0 | 0.00 | 0.00 | 0.00 | 82 | 1006.9 |
| 20260905080354 | 65 | 303 | 0.0 | 2.0 | 0.00 | 0.00 | 0.00 | 82 | 1006.9 |
| 20260905075847 | 65 | 303 | 0.0 | 3.0 | 0.00 | 0.00 | 0.00 | 82 | 1006.9 |
| 20260905075351 | 65 | 302 | 0.0 | 3.0 | 0.00 | 0.00 | 0.00 | 82 | 1007.0 |
| 20260905074913 | 65 | 302 | 0.0 | 3.0 | 0.00 | 0.00 | 0.00 | 82 | 1006.9 |
| 20260905074354 | 65 | 301 | 0.0 | 3.0 | 0.00 | 0.00 | 0.00 | 82 | 1006.9 |
| 20260905073859 | 65 | 302 | 1.0 | 4.0 | 0.00 | 0.00 | 0.00 | 82 | 1006.9 |
| 20260905073400 | 65 | 298 | 1.0 | 5.0 | 0.00 | 0.00 | 0.00 | 81 | 1006.9 |
| 20260905072844 | 65 | 331 | 0.0 | 5.0 | 0.00 | 0.00 | 0.00 | 81 | 1007.0 |
| 20260905072353 | 66 | 336 | 0.0 | 3.0 | 0.00 | 0.00 | 0.00 | 81 | 1007.0 |
| 20260905071859 | 66 | 336 | 0.0 | 2.0 | 0.00 | 0.00 | 0.00 | 81 | 1007.1 |
| 20260905071346 | 66 | 336 | 0.0 | 4.0 | 0.00 | 0.00 | 0.00 | 81 | 1007.1 |
| 20260905070853 | 66 | 336 | 1.0 | 4.0 | 0.00 | 0.00 | 0.00 | 80 | 1007.1 |
| 20260905070354 | 66 | 336 | 1.0 | 3.0 | 0.00 | 0.00 | 0.00 | 80 | 1007.1 |
| 20260905065846 | 66 | 336 | 1.0 | 4.0 | 0.00 | 0.00 | 0.00 | 80 | 1007.0 |
| 20260905065352 | 66 | 335 | 1.0 | 4.0 | 0.00 | 0.00 | 0.00 | 80 | 1007.2 |
| 20260905064857 | 66 | 335 | 0.0 | 4.0 | 0.00 | 0.00 | 0.00 | 80 | 1007.1 |
| 20260905064344 | 66 | 329 | 0.0 | 2.0 | 0.00 | 0.00 | 0.00 | 80 | 1007.1 |
| 20260905063911 | 66 | 326 | 0.0 | 5.0 | 0.00 | 0.00 | 0.00 | 79 | 1007.2 |
| 20260905063354 | 66 | 332 | 1.0 | 6.0 | 0.00 | 0.00 | 0.00 | 79 | 1007.2 |
| 20260905062858 | 67 | 321 | 2.0 | 6.0 | 0.00 | 0.00 | 0.00 | 79 | 1007.3 |
| 20260905062345 | 67 | 329 | 0.0 | 8.0 | 0.00 | 0.00 | 0.00 | 79 | 1007.4 |
| 20260905061850 | 67 | 313 | 1.0 | 8.0 | 0.00 | 0.00 | 0.00 | 79 | 1007.5 |
| 20260905061355 | 67 | 334 | 1.0 | 7.0 | 0.00 | 0.00 | 0.00 | 79 | 1007.5 |
| 20260905060842 | 67 | 323 | 2.0 | 7.0 | 0.00 | 0.00 | 0.00 | 79 | 1007.5 |
| 20260905060342 | 67 | 319 | 1.0 | 7.0 | 0.00 | 0.00 | 0.00 | 79 | 1007.6 |
| 20260905055914 | 67 | 314 | 2.0 | 7.0 | 0.00 | 0.00 | 0.00 | 79 | 1007.6 |
| 20260905055421 | 67 | 331 | 2.0 | 4.0 | 0.00 | 0.00 | 0.00 | 79 | 1007.5 |
| 20260905054844 | 67 | 338 | 0.0 | 5.0 | 0.00 | 0.00 | 0.00 | 78 | 1007.5 |
| 20260905054410 | 67 | 317 | 1.0 | 5.0 | 0.00 | 0.00 | 0.00 | 78 | 1007.5 |
| 20260905053856 | 67 | 321 | 1.0 | 4.0 | 0.00 | 0.00 | 0.00 | 78 | 1007.5 |
| 20260905053358 | 68 | 351 | 0.0 | 5.0 | 0.00 | 0.00 | 0.00 | 78 | 1007.4 |
| 20260905052843 | 68 | 351 | 0.0 | 5.0 | 0.00 | 0.00 | 0.00 | 77 | 1007.5 |
| 20260905052349 | 68 | 325 | 1.0 | 3.0 | 0.00 | 0.00 | 0.00 | 77 | 1007.5 |
| 20260905051853 | 68 | 324 | 1.0 | 4.0 | 0.00 | 0.00 | 0.00 | 76 | 1007.5 |
| 20260905051357 | 68 | 339 | 1.0 | 5.0 | 0.00 | 0.00 | 0.00 | 76 | 1007.5 |
| 20260905050844 | 69 | 280 | 0.0 | 4.0 | 0.00 | 0.00 | 0.00 | 75 | 1007.5 |
| 20260905050342 | 69 | 274 | 1.0 | 3.0 | 0.00 | 0.00 | 0.00 | 75 | 1007.5 |
| 20260905045854 | 69 | 271 | 0.0 | 3.0 | 0.00 | 0.00 | 0.00 | 75 | 1007.5 |
| 20260905045401 | 69 | 270 | 1.0 | 3.0 | 0.00 | 0.00 | 0.00 | 75 | 1007.5 |
| 20260905044907 | 69 | 265 | 0.0 | 3.0 | 0.00 | 0.00 | 0.00 | 74 | 1007.4 |
| 20260905044412 | 69 | 262 | 0.0 | 3.0 | 0.00 | 0.00 | 0.00 | 74 | 1007.5 |
| 20260905043855 | 69 | 261 | 0.0 | 4.0 | 0.00 | 0.00 | 0.00 | 74 | 1007.3 |
| 20260905043400 | 69 | 261 | 1.0 | 4.0 | 0.00 | 0.00 | 0.00 | 75 | 1007.3 |
| 20260905042847 | 69 | 327 | 1.0 | 4.0 | 0.00 | 0.00 | 0.00 | 75 | 1007.3 |
| 20260905042353 | 69 | 67 | 1.0 | 4.0 | 0.00 | 0.00 | 0.00 | 75 | 1007.4 |
| 20260905041858 | 69 | 333 | 1.0 | 4.0 | 0.00 | 0.00 | 0.00 | 75 | 1007.4 |
| 20260905041342 | 69 | 333 | 1.0 | 6.0 | 0.00 | 0.00 | 0.00 | 75 | 1007.4 |
| 20260905040849 | 69 | 319 | 1.0 | 6.0 | 0.00 | 0.00 | 0.00 | 75 | 1007.5 |
| 20260905040400 | 69 | 333 | 0.0 | 2.0 | 0.00 | 0.00 | 0.00 | 74 | 1007.5 |
| 20260905035843 | 70 | 333 | 0.0 | 2.0 | 0.00 | 0.00 | 0.00 | 74 | 1007.6 |
| 20260905035348 | 70 | 333 | 0.0 | 3.0 | 0.00 | 0.00 | 0.00 | 74 | 1007.6 |
| 20260905034910 | 70 | 333 | 0.0 | 3.0 | 0.00 | 0.00 | 0.00 | 74 | 1007.6 |
| 20260905034416 | 70 | 333 | 0.0 | 2.0 | 0.00 | 0.00 | 0.00 | 73 | 1007.5 |
| 20260905033900 | 70 | 333 | 0.0 | 4.0 | 0.00 | 0.00 | 0.00 | 73 | 1007.4 |
| 20260905033342 | 70 | 334 | 1.0 | 4.0 | 0.00 | 0.00 | 0.00 | 73 | 1007.4 |
| 20260905032909 | 71 | 338 | 0.0 | 2.0 | 0.00 | 0.00 | 0.00 | 72 | 1007.4 |
| 20260905032353 | 71 | 338 | 0.0 | 3.0 | 0.00 | 0.00 | 0.00 | 72 | 1007.5 |
| 20260905031856 | 71 | 338 | 1.0 | 3.0 | 0.00 | 0.00 | 0.00 | 72 | 1007.6 |
| 20260905031401 | 71 | 339 | 0.0 | 3.0 | 0.00 | 0.00 | 0.00 | 71 | 1007.6 |
| 20260905030847 | 71 | 339 | 0.0 | 2.0 | 0.00 | 0.00 | 0.00 | 71 | 1007.5 |
| 20260905030347 | 71 | 339 | 0.0 | 2.0 | 0.00 | 0.00 | 0.00 | 71 | 1007.5 |
| 20260905025857 | 72 | 339 | 0.0 | 3.0 | 0.00 | 0.00 | 0.00 | 70 | 1007.5 |
| 20260905025402 | 72 | 339 | 0.0 | 3.0 | 0.00 | 0.00 | 0.00 | 70 | 1007.4 |
| 20260905024920 | 72 | 339 | 0.0 | 2.0 | 0.00 | 0.00 | 0.00 | 70 | 1007.5 |
| 20260905024343 | 72 | 340 | 0.0 | 2.0 | 0.00 | 0.00 | 0.00 | 69 | 1007.5 |
| 20260905023909 | 72 | 340 | 0.0 | 4.0 | 0.00 | 0.00 | 0.00 | 69 | 1007.6 |
| 20260905023411 | 72 | 338 | 1.0 | 4.0 | 0.00 | 0.00 | 0.00 | 69 | 1007.6 |
| 20260905022854 | 72 | 338 | 0.0 | 3.0 | 0.00 | 0.00 | 0.00 | 69 | 1007.6 |
| 20260905022359 | 72 | 339 | 0.0 | 3.0 | 0.00 | 0.00 | 0.00 | 69 | 1007.5 |
| 20260905021901 | 72 | 339 | 0.0 | 3.0 | 0.00 | 0.00 | 0.00 | 69 | 1007.7 |
| 20260905021345 | 73 | 346 | 0.0 | 4.0 | 0.00 | 0.00 | 0.00 | 69 | 1007.7 |
| 20260905020848 | 73 | 343 | 1.0 | 5.0 | 0.00 | 0.00 | 0.00 | 68 | 1007.7 |
| 20260905020344 | 73 | 344 | 0.0 | 5.0 | 0.00 | 0.00 | 0.00 | 68 | 1007.7 |
| 20260905015848 | 73 | 334 | 1.0 | 3.0 | 0.00 | 0.00 | 0.00 | 68 | 1007.7 |
| 20260905015413 | 73 | 334 | 0.0 | 3.0 | 0.00 | 0.00 | 0.00 | 68 | 1007.7 |
| 20260905014855 | 73 | 337 | 0.0 | 5.0 | 0.00 | 0.00 | 0.00 | 68 | 1007.8 |
| 20260905014414 | 73 | 337 | 1.0 | 5.0 | 0.00 | 0.00 | 0.00 | 68 | 1007.9 |
| 20260905013842 | 73 | 22 | 0.0 | 3.0 | 0.00 | 0.00 | 0.00 | 68 | 1007.9 |
| 20260905013346 | 74 | 36 | 0.0 | 2.0 | 0.00 | 0.00 | 0.00 | 67 | 1007.9 |
| 20260905012849 | 74 | 44 | 0.0 | 1.0 | 0.00 | 0.00 | 0.00 | 67 | 1007.8 |
| 20260905012408 | 74 | 51 | 0.0 | 1.0 | 0.00 | 0.00 | 0.00 | 67 | 1007.8 |
| 20260905011909 | 74 | 51 | 0.0 | 2.0 | 0.00 | 0.00 | 0.00 | 67 | 1007.9 |
| 20260905011414 | 74 | 51 | 0.0 | 2.0 | 0.00 | 0.00 | 0.00 | 66 | 1007.9 |
| 20260905010857 | 75 | 51 | 0.0 | 1.0 | 0.00 | 0.00 | 0.00 | 66 | 1007.9 |
| 20260905010350 | 75 | 51 | 0.0 | 1.0 | 0.00 | 0.00 | 0.00 | 65 | 1007.9 |
| 20260905005919 | 75 | 51 | 0.0 | 4.0 | 0.00 | 0.00 | 0.00 | 65 | 1007.9 |
| 20260905005341 | 75 | 52 | 0.0 | 4.0 | 0.00 | 0.00 | 0.00 | 64 | 1007.8 |
| 20260905004842 | 75 | 315 | 0.0 | 4.0 | 0.00 | 0.00 | 0.00 | 64 | 1007.8 |
| 20260905004347 | 75 | 317 | 1.0 | 3.0 | 0.00 | 0.00 | 0.00 | 64 | 1007.8 |
| 20260905003854 | 76 | 317 | 0.0 | 1.0 | 0.00 | 0.00 | 0.00 | 63 | 1007.8 |
| 20260905003400 | 76 | 317 | 0.0 | 0.0 | 0.00 | 0.00 | 0.00 | 63 | 1007.7 |
| 20260905002844 | 76 | 317 | 0.0 | 3.0 | 0.00 | 0.00 | 0.00 | 62 | 1007.6 |
| 20260905002350 | 76 | 317 | 0.0 | 3.0 | 0.00 | 0.00 | 0.00 | 62 | 1007.6 |
| 20260905001911 | 76 | 317 | 0.0 | 3.0 | 0.00 | 0.00 | 0.00 | 62 | 1007.6 |
| 20260905001414 | 76 | 314 | 0.0 | 8.0 | 0.00 | 0.00 | 0.00 | 61 | 1007.6 |
| 20260905000859 | 77 | 313 | 2.0 | 8.0 | 0.00 | 0.00 | 0.00 | 61 | 1007.6 |
| 20260905000355 | 77 | 334 | 0.0 | 4.0 | 0.00 | 0.00 | 0.00 | 60 | 1007.4 |
| 20260904235900 | 77 | 329 | 0.0 | 5.0 | 0.00 | 0.00 | 0.00 | 60 | 1007.4 |
| 20260904235344 | 78 | 341 | 1.0 | 5.0 | 0.00 | 0.00 | 0.00 | 60 | 1007.4 |
| 20260904234847 | 78 | 279 | 3.0 | 5.0 | 0.00 | 0.00 | 0.00 | 59 | 1007.3 |
| 20260904234353 | 78 | 322 | 1.0 | 5.0 | 0.00 | 0.00 | 0.00 | 59 | 1007.2 |
| 20260904233858 | 78 | 322 | 2.0 | 5.0 | 0.00 | 0.00 | 0.00 | 59 | 1007.1 |
| 20260904233420 | 78 | 348 | 1.0 | 5.0 | 0.00 | 0.00 | 0.00 | 59 | 1007.0 |
| 20260904232844 | 78 | 323 | 0.0 | 3.0 | 0.00 | 0.00 | 0.00 | 58 | 1007.0 |
| 20260904232350 | 79 | 324 | 0.0 | 4.0 | 0.00 | 0.00 | 0.00 | 58 | 1006.9 |
| 20260904231853 | 79 | 320 | 0.0 | 4.0 | 0.00 | 0.00 | 0.00 | 57 | 1006.9 |
| 20260904231359 | 79 | 306 | 0.0 | 3.0 | 0.00 | 0.00 | 0.00 | 57 | 1006.9 |
| 20260904230842 | 79 | 304 | 1.0 | 3.0 | 0.00 | 0.00 | 0.00 | 57 | 1006.9 |
| 20260904230340 | 80 | 304 | 0.0 | 3.0 | 0.00 | 0.00 | 0.00 | 56 | 1006.9 |
| 20260904225850 | 80 | 303 | 0.0 | 3.0 | 0.00 | 0.00 | 0.00 | 56 | 1006.9 |
| 20260904225356 | 80 | 302 | 0.0 | 5.0 | 0.00 | 0.00 | 0.00 | 56 | 1006.9 |
| 20260904224857 | 80 | 302 | 1.0 | 5.0 | 0.00 | 0.00 | 0.00 | 55 | 1006.9 |
| 20260904224343 | 80 | 328 | 0.0 | 5.0 | 0.00 | 0.00 | 0.00 | 55 | 1006.8 |
| 20260904223848 | 81 | 326 | 1.0 | 3.0 | 0.00 | 0.00 | 0.00 | 55 | 1006.8 |
| 20260904223352 | 81 | 327 | 0.0 | 3.0 | 0.00 | 0.00 | 0.00 | 54 | 1006.7 |
| 20260904222859 | 81 | 335 | 0.0 | 4.0 | 0.00 | 0.00 | 0.00 | 54 | 1006.7 |
| 20260904222344 | 82 | 355 | 0.0 | 8.0 | 0.00 | 0.00 | 0.00 | 53 | 1006.8 |
| 20260904221847 | 82 | 315 | 1.0 | 6.0 | 0.00 | 0.00 | 0.00 | 52 | 1006.7 |
| 20260904221354 | 82 | 326 | 2.0 | 5.0 | 0.00 | 0.00 | 0.00 | 52 | 1006.6 |
| 20260904220840 | 82 | 296 | 1.0 | 9.0 | 0.00 | 0.00 | 0.00 | 52 | 1006.6 |
| 20260904220359 | 82 | 288 | 2.0 | 9.0 | 0.00 | 0.00 | 0.00 | 51 | 1006.6 |
| 20260904215849 | 82 | 338 | 1.0 | 6.0 | 0.00 | 0.00 | 0.00 | 50 | 1006.6 |
| 20260904215413 | 83 | 71 | 2.0 | 6.0 | 0.00 | 0.00 | 0.00 | 50 | 1006.7 |
| 20260904214856 | 83 | 319 | 1.0 | 6.0 | 0.00 | 0.00 | 0.00 | 50 | 1006.6 |
| 20260904214403 | 83 | 350 | 2.0 | 6.0 | 0.00 | 0.00 | 0.00 | 50 | 1006.7 |
| 20260904213901 | 83 | 319 | 1.0 | 4.0 | 0.00 | 0.00 | 0.00 | 50 | 1006.8 |
| 20260904213405 | 83 | 154 | 0.0 | 6.0 | 0.00 | 0.00 | 0.00 | 49 | 1006.7 |
| 20260904212851 | 83 | 306 | 1.0 | 7.0 | 0.00 | 0.00 | 0.00 | 48 | 1006.7 |
| 20260904212420 | 84 | 317 | 1.0 | 7.0 | 0.00 | 0.00 | 0.00 | 48 | 1006.7 |
| 20260904211904 | 84 | 292 | 1.0 | 6.0 | 0.00 | 0.00 | 0.00 | 47 | 1006.6 |
| 20260904211351 | 84 | 9 | 1.0 | 7.0 | 0.00 | 0.00 | 0.00 | 49 | 1006.6 |
| 20260904210856 | 84 | 329 | 2.0 | 7.0 | 0.00 | 0.00 | 0.00 | 49 | 1006.6 |
| 20260904210417 | 84 | 331 | 2.0 | 6.0 | 0.00 | 0.00 | 0.00 | 50 | 1006.5 |
| 20260904205848 | 83 | 308 | 1.0 | 4.0 | 0.00 | 0.00 | 0.00 | 49 | 1006.5 |
| 20260904205355 | 83 | 338 | 1.0 | 8.0 | 0.00 | 0.00 | 0.00 | 47 | 1006.6 |